Home   Weather   Kornwestheim   Past weeks
Flag for Germany

Past Weather in Kornwestheim, Baden-Württemberg, Germany — Yesterday and Last 2 Weeks

Now
36 °F

Passing clouds.


Feels Like: 33 °F
Forecast: 53 / 28 °F
Wind: 3 mph from East

Location: Stuttgart-Echterdingen

Current Time: Apr 1, 2020 at 10:25:22 am

Latest Report: Apr 1, 2020 at 9:20 am


Visibility: N/A

Pressure: 30.15 "Hg

Humidity: 60%

Dew Point: 23 °F

Location of KornwestheimLocation

Past Weather in Kornwestheim — Graph

°F

Kornwestheim Temperature Yesterday

Maximum temperature yesterday: 45 °F (at 2:50 pm)
Minimum temperature yesterday: 25 °F (at 4:20 am)
Average temperature yesterday: 34 °F

High & Low Weather Summary for the Past Weeks

 TemperatureHumidityPressure
High66 °F (Mar 19, 1:50 pm)100% (Mar 18, 3:20 am)30.45 "Hg (Mar 18, 3:20 am)
Low25 °F (Mar 24, 2:20 am)29% (Mar 24, 2:50 pm)29.92 "Hg (Mar 27, 4:20 pm)
Average42 °F64%30.21 "Hg
* Reported Mar 17 8:20 am — Apr 1 9:20 am, Kornwestheim. Weather by CustomWeather, © 2020

Note: Actual official high and low records may vary slightly from our data, if they occured in-between our weather recording intervals... More about our weather records

Kornwestheim Weather History for the Previous 24 Hours

Scroll right to see more
 ConditionsComfort  
Time TempWeatherWind HumidityBarometerVisibility
9:20 am
Wed, Apr 1
36 °FPassing clouds.3 mph60%30.15 "HgN/A
8:50 am36 °FSunny.1 mph60%30.15 "Hg10 mi
8:20 am34 °FSunny.1 mph65%30.15 "Hg10 mi
7:50 am28 °FSunny.3 mph74%30.15 "Hg10 mi
7:20 am27 °FSunny.2 mph74%30.15 "Hg10 mi
6:50 am27 °FClear.2 mph74%30.15 "Hg10 mi
6:20 am27 °FClear.1 mph74%30.18 "Hg10 mi
5:50 am27 °FClear.1 mph74%30.18 "Hg10 mi
5:20 am28 °FClear.1 mph74%30.18 "Hg10 mi
4:50 am28 °FClear.1 mph74%30.18 "Hg10 mi
4:20 am28 °FClear.2 mph74%30.18 "Hg10 mi
3:50 am28 °FClear.2 mph69%30.18 "Hg10 mi
3:20 am28 °FClear.1 mph74%30.21 "Hg10 mi
2:50 am28 °FClear.1 mph74%30.21 "Hg10 mi
2:20 am28 °FClear.2 mph74%30.21 "Hg10 mi
1:50 am30 °FClear.2 mph64%30.21 "Hg10 mi
1:20 am30 °FClear.1 mph64%30.24 "Hg10 mi
12:50 am32 °FClear.2 mph60%30.24 "Hg10 mi
12:20 am32 °FClear.1 mph60%30.24 "Hg10 mi
11:50 pm
Tue, Mar 31
32 °FClear.1 mph60%30.24 "Hg10 mi
11:20 pm32 °FClear.2 mph64%30.27 "Hg10 mi
10:50 pm34 °FPassing clouds.3 mph56%30.27 "HgN/A
10:20 pm34 °FClear.1 mph60%30.27 "Hg10 mi
9:50 pm36 °FClear.3 mph52%30.27 "Hg10 mi
9:20 pm36 °FClear.5 mph56%30.27 "Hg10 mi
8:50 pm36 °FClear.6 mph52%30.27 "Hg10 mi
8:20 pm37 °FClear.8 mph52%30.27 "Hg10 mi
7:50 pm37 °FSunny.8 mph48%30.27 "Hg10 mi
7:20 pm41 °FSunny.9 mph42%30.27 "Hg10 mi
6:50 pm41 °FSunny.14 mph45%30.27 "Hg10 mi
6:20 pm43 °FSunny.8 mph39%30.27 "Hg10 mi
5:50 pm45 °FSunny.13 mph39%30.24 "Hg10 mi
5:20 pm43 °FPassing clouds.8 mph39%30.24 "HgN/A
4:50 pm43 °FSunny.13 mph39%30.27 "Hg10 mi
3:20 pm43 °FPassing clouds.9 mph42%30.27 "HgN/A
2:50 pm45 °FScattered clouds.12 mph39%30.27 "HgN/A
2:20 pm43 °FPassing clouds.12 mph39%30.27 "HgN/A
1:50 pm43 °FPartly sunny.10 mph42%30.27 "HgN/A
1:20 pm43 °FPartly sunny.9 mph49%30.27 "HgN/A
12:50 pm41 °FPartly sunny.9 mph49%30.27 "HgN/A
12:20 pm41 °FPartly sunny.8 mph53%30.27 "HgN/A
11:50 am43 °FScattered clouds.9 mph53%30.30 "HgN/A
11:20 am41 °FPassing clouds.6 mph53%30.30 "HgN/A
10:50 am37 °FPassing clouds.3 mph56%30.30 "HgN/A
10:20 am37 °FPassing clouds.2 mph52%30.30 "HgN/A
Weather by CustomWeather, © 2020

See weather overview

Advertising